Time,TemperatureF,DewpointF,PressureIn,WindDirection,WindDirectionDegrees,WindSpeedMPH,WindSpeedGustMPH,Humidity,HourlyPrecipIn,Conditions,Clouds,dailyrainin,SoftwareType,DateUTC
2013-07-27 00:01:00,74.1,50.8,29.90,NW,315,2.7,-999.0,44,-99.99,,,0.00,Acu-Link.com,2013-07-27 07:01:00,
2013-07-27 00:16:00,74.5,49.9,29.90,WNW,292,3.2,-999.0,42,-99.99,,,0.00,Acu-Link.com,2013-07-27 07:16:00,
2013-07-27 00:46:00,74.7,46.7,29.89,West,270,5.3,-999.0,37,-99.99,,,0.00,Acu-Link.com,2013-07-27 07:46:00,
2013-07-27 01:01:00,74.7,45.2,29.88,NW,315,4.2,-999.0,35,-99.99,,,0.00,Acu-Link.com,2013-07-27 08:01:00,
2013-07-27 01:17:00,74.5,45.0,29.88,WNW,292,4.2,-999.0,35,-99.99,,,0.00,Acu-Link.com,2013-07-27 08:17:00,
2013-07-27 01:32:00,73.8,44.4,29.88,WNW,292,2.2,-999.0,35,-99.99,,,0.00,Acu-Link.com,2013-07-27 08:32:00,
2013-07-27 01:47:00,74.1,44.7,29.87,West,270,2.7,-999.0,35,-99.99,,,0.00,Acu-Link.com,2013-07-27 08:47:00,
2013-07-27 02:02:00,74.1,44.7,29.87,WNW,292,2.2,-999.0,35,-99.99,,,0.00,Acu-Link.com,2013-07-27 09:02:00,
2013-07-27 02:17:00,73.8,43.7,29.87,WNW,292,1.7,-999.0,34,-99.99,,,0.00,Acu-Link.com,2013-07-27 09:17:00,
2013-07-27 02:32:00,73.0,43.7,29.87,WNW,292,1.7,-999.0,35,-99.99,,,0.00,Acu-Link.com,2013-07-27 09:32:00,
2013-07-27 02:47:00,72.1,42.9,29.86,West,270,2.2,-999.0,35,-99.99,,,0.00,Acu-Link.com,2013-07-27 09:47:00,
2013-07-27 03:03:00,71.2,42.9,29.86,WNW,292,4.7,-999.0,36,-99.99,,,0.00,Acu-Link.com,2013-07-27 10:03:00,
2013-07-27 03:18:00,70.7,43.8,29.86,WNW,292,4.7,-999.0,38,-99.99,,,0.00,Acu-Link.com,2013-07-27 10:18:00,
2013-07-27 03:33:00,70.7,43.8,29.86,NW,315,4.2,-999.0,38,-99.99,,,0.00,Acu-Link.com,2013-07-27 10:33:00,
2013-07-27 03:48:00,70.2,44.1,29.85,West,270,4.2,-999.0,39,-99.99,,,0.00,Acu-Link.com,2013-07-27 10:48:00,
2013-07-27 04:03:00,69.3,44.6,29.85,WNW,292,3.7,-999.0,41,-99.99,,,0.00,Acu-Link.com,2013-07-27 11:03:00,
2013-07-27 04:18:00,68.7,45.3,29.85,WNW,292,3.2,-999.0,43,-99.99,,,0.00,Acu-Link.com,2013-07-27 11:18:00,
2013-07-27 04:33:00,68.9,45.5,29.85,NNW,337,3.7,-999.0,43,-99.99,,,0.00,Acu-Link.com,2013-07-27 11:33:00,
2013-07-27 04:48:00,68.0,45.3,29.85,WNW,292,4.7,-999.0,44,-99.99,,,0.00,Acu-Link.com,2013-07-27 11:48:00,
2013-07-27 05:04:00,67.5,45.4,29.85,NW,315,4.2,-999.0,45,-99.99,,,0.00,Acu-Link.com,2013-07-27 12:04:00,
2013-07-27 05:19:00,66.4,45.6,29.85,West,270,5.3,-999.0,47,-99.99,,,0.00,Acu-Link.com,2013-07-27 12:19:00,
2013-07-27 05:34:00,66.0,46.8,29.85,WNW,292,8.3,-999.0,50,-99.99,,,0.00,Acu-Link.com,2013-07-27 12:34:00,
2013-07-27 05:49:00,64.9,46.8,29.86,WSW,247,3.2,-999.0,52,-99.99,,,0.00,Acu-Link.com,2013-07-27 12:49:00,
2013-07-27 06:04:00,65.1,49.5,29.86,WNW,292,5.3,-999.0,57,-99.99,,,0.00,Acu-Link.com,2013-07-27 13:04:00,
2013-07-27 06:19:00,64.9,50.2,29.86,WNW,292,3.7,-999.0,59,-99.99,,,0.00,Acu-Link.com,2013-07-27 13:19:00,
2013-07-27 06:34:00,64.6,50.4,29.86,West,270,5.3,-999.0,60,-99.99,,,0.00,Acu-Link.com,2013-07-27 13:34:00,
2013-07-27 06:50:00,64.8,50.6,29.86,WNW,292,4.7,-999.0,60,-99.99,,,0.00,Acu-Link.com,2013-07-27 13:50:00,
2013-07-27 07:06:00,65.5,50.3,29.86,WNW,292,4.7,-999.0,58,-99.99,,,0.00,Acu-Link.com,2013-07-27 14:06:00,
2013-07-27 07:21:00,66.4,50.2,29.87,NW,315,5.3,-999.0,56,-99.99,,,0.00,Acu-Link.com,2013-07-27 14:21:00,
2013-07-27 08:52:00,73.4,50.8,29.87,West,270,4.7,-999.0,45,-99.99,,,0.00,Acu-Link.com,2013-07-27 15:52:00,
2013-07-27 09:07:00,75.4,51.3,29.87,NW,315,1.7,-999.0,43,-99.99,,,0.00,Acu-Link.com,2013-07-27 16:07:00,
2013-07-27 09:22:00,76.8,52.0,29.87,West,270,2.2,-999.0,42,-99.99,,,0.00,Acu-Link.com,2013-07-27 16:22:00,
2013-07-27 09:37:00,78.8,53.1,29.87,NNW,337,1.7,-999.0,41,-99.99,,,0.00,Acu-Link.com,2013-07-27 16:37:00,
2013-07-27 09:52:00,80.2,53.0,29.87,NNE,22,2.2,-999.0,39,-99.99,,,0.00,Acu-Link.com,2013-07-27 16:52:00,
2013-07-27 10:07:00,81.7,53.6,29.87,NE,45,2.2,-999.0,38,-99.99,,,0.00,Acu-Link.com,2013-07-27 17:07:00,
2013-07-27 10:22:00,83.1,54.1,29.87,NNW,337,2.7,-999.0,37,-99.99,,,0.00,Acu-Link.com,2013-07-27 17:22:00,
2013-07-27 10:37:00,84.0,54.9,29.86,ENE,67,2.7,-999.0,37,-99.99,,,0.00,Acu-Link.com,2013-07-27 17:37:00,
2013-07-27 10:53:00,84.7,54.8,29.86,NE,45,2.7,-999.0,36,-99.99,,,0.00,Acu-Link.com,2013-07-27 17:53:00,
2013-07-27 11:08:00,85.1,54.3,29.86,NE,45,3.2,-999.0,35,-99.99,,,0.00,Acu-Link.com,2013-07-27 18:08:00,
2013-07-27 11:23:00,86.5,55.6,29.86,NNW,337,2.2,-999.0,35,-99.99,,,0.00,Acu-Link.com,2013-07-27 18:23:00,
2013-07-27 11:38:00,87.8,55.1,29.86,NNW,337,2.7,-999.0,33,-99.99,,,0.00,Acu-Link.com,2013-07-27 18:38:00,
2013-07-27 11:53:00,88.2,55.4,29.86,North,0,3.7,-999.0,33,-99.99,,,0.00,Acu-Link.com,2013-07-27 18:53:00,
2013-07-27 12:08:00,89.6,55.8,29.86,ENE,67,2.7,-999.0,32,-99.99,,,0.00,Acu-Link.com,2013-07-27 19:08:00,
2013-07-27 12:23:00,90.5,56.6,29.85,NNE,22,3.2,-999.0,32,-99.99,,,0.00,Acu-Link.com,2013-07-27 19:23:00,
2013-07-27 12:38:00,92.5,56.5,29.85,NE,45,2.7,-999.0,30,-99.99,,,0.00,Acu-Link.com,2013-07-27 19:38:00,
2013-07-27 12:53:00,93.4,57.3,29.84,WNW,292,3.2,-999.0,30,-99.99,,,0.00,Acu-Link.com,2013-07-27 19:53:00,
2013-07-27 13:09:00,95.9,56.5,29.84,NNE,22,3.7,-999.0,27,-99.99,,,0.00,Acu-Link.com,2013-07-27 20:09:00,
2013-07-27 13:24:00,96.1,57.7,29.83,North,0,3.2,-999.0,28,-99.99,,,0.00,Acu-Link.com,2013-07-27 20:24:00,
2013-07-27 13:39:00,98.8,58.9,29.83,East,90,3.2,-999.0,27,-99.99,,,0.00,Acu-Link.com,2013-07-27 20:39:00,
2013-07-27 13:54:00,97.3,57.7,29.82,NE,45,3.2,-999.0,27,-99.99,,,0.00,Acu-Link.com,2013-07-27 20:54:00,
2013-07-27 14:09:00,99.5,58.5,29.82,NE,45,2.7,-999.0,26,-99.99,,,0.00,Acu-Link.com,2013-07-27 21:09:00,
2013-07-27 14:24:00,99.7,58.6,29.81,NE,45,3.2,-999.0,26,-99.99,,,0.00,Acu-Link.com,2013-07-27 21:24:00,
2013-07-27 14:39:00,100.9,58.6,29.81,NE,45,2.2,-999.0,25,-99.99,,,0.00,Acu-Link.com,2013-07-27 21:39:00,
2013-07-27 14:54:00,98.8,58.9,29.80,ENE,67,3.2,-999.0,27,-99.99,,,0.00,Acu-Link.com,2013-07-27 21:54:00,
2013-07-27 15:09:00,101.3,60.0,29.80,NE,45,2.7,-999.0,26,-99.99,,,0.00,Acu-Link.com,2013-07-27 22:09:00,
2013-07-27 15:25:00,100.6,59.4,29.79,NE,45,3.2,-999.0,26,-99.99,,,0.00,Acu-Link.com,2013-07-27 22:25:00,
2013-07-27 15:40:00,101.5,59.1,29.78,NE,45,2.7,-999.0,25,-99.99,,,0.00,Acu-Link.com,2013-07-27 22:40:00,
2013-07-27 15:55:00,101.3,58.9,29.78,NE,45,1.7,-999.0,25,-99.99,,,0.00,Acu-Link.com,2013-07-27 22:55:00,
2013-07-27 16:10:00,100.2,58.0,29.77,ENE,67,4.2,-999.0,25,-99.99,,,0.00,Acu-Link.com,2013-07-27 23:10:00,
2013-07-27 16:25:00,100.4,58.1,29.77,NE,45,3.7,-999.0,25,-99.99,,,0.00,Acu-Link.com,2013-07-27 23:25:00,
2013-07-27 16:40:00,96.8,56.2,29.76,NNE,22,4.2,-999.0,26,-99.99,,,0.00,Acu-Link.com,2013-07-27 23:40:00,
2013-07-27 16:56:00,98.6,58.8,29.76,North,0,3.2,-999.0,27,-99.99,,,0.00,Acu-Link.com,2013-07-27 23:56:00,
2013-07-27 17:11:00,97.2,58.6,29.75,NNE,22,2.2,-999.0,28,-99.99,,,0.00,Acu-Link.com,2013-07-28 00:11:00,
2013-07-27 17:26:00,96.3,57.8,29.75,NNE,22,2.2,-999.0,28,-99.99,,,0.00,Acu-Link.com,2013-07-28 00:26:00,
2013-07-27 17:41:00,95.5,57.2,29.75,NE,45,2.7,-999.0,28,-99.99,,,0.00,Acu-Link.com,2013-07-28 00:41:00,
2013-07-27 18:56:00,88.2,57.1,29.74,NE,45,3.2,-999.0,35,-99.99,,,0.00,Acu-Link.com,2013-07-28 01:56:00,
2013-07-27 19:12:00,87.3,57.8,29.74,NE,45,2.7,-999.0,37,-99.99,,,0.00,Acu-Link.com,2013-07-28 02:12:00,
2013-07-27 19:27:00,86.2,57.6,29.75,NNE,22,3.7,-999.0,38,-99.99,,,0.00,Acu-Link.com,2013-07-28 02:27:00,
2013-07-27 19:42:00,84.9,55.7,29.74,NNE,22,3.2,-999.0,37,-99.99,,,0.00,Acu-Link.com,2013-07-28 02:42:00,
2013-07-27 19:57:00,83.5,52.9,29.75,NE,45,2.7,-999.0,35,-99.99,,,0.00,Acu-Link.com,2013-07-28 02:57:00,
2013-07-27 20:12:00,81.5,49.6,29.75,NNE,22,3.7,-999.0,33,-99.99,,,0.00,Acu-Link.com,2013-07-28 03:12:00,
2013-07-27 20:27:00,80.2,50.8,29.75,NNE,22,3.2,-999.0,36,-99.99,,,0.00,Acu-Link.com,2013-07-28 03:27:00,
2013-07-27 20:42:00,79.5,50.2,29.75,West,270,2.7,-999.0,36,-99.99,,,0.00,Acu-Link.com,2013-07-28 03:42:00,
2013-07-27 20:58:00,78.3,52.0,29.77,WNW,292,3.7,-999.0,40,-99.99,,,0.00,Acu-Link.com,2013-07-28 03:58:00,
2013-07-27 21:13:00,77.5,51.9,29.76,West,270,3.2,-999.0,41,-99.99,,,0.00,Acu-Link.com,2013-07-28 04:13:00,
2013-07-27 21:28:00,77.0,51.5,29.76,NNW,337,3.2,-999.0,41,-99.99,,,0.00,Acu-Link.com,2013-07-28 04:28:00,
2013-07-27 21:43:00,76.1,51.3,29.77,West,270,3.2,-999.0,42,-99.99,,,0.00,Acu-Link.com,2013-07-28 04:43:00,
2013-07-27 21:58:00,75.4,51.3,29.77,WNW,292,3.2,-999.0,43,-99.99,,,0.00,Acu-Link.com,2013-07-28 04:58:00,
2013-07-27 22:13:00,74.7,50.7,29.77,NW,315,3.2,-999.0,43,-99.99,,,0.00,Acu-Link.com,2013-07-28 05:13:00,
2013-07-27 22:29:00,74.5,50.5,29.77,WNW,292,5.3,-999.0,43,-99.99,,,0.00,Acu-Link.com,2013-07-28 05:29:00,
2013-07-27 22:44:00,73.9,50.0,29.77,NNW,337,5.8,-999.0,43,-99.99,,,0.00,Acu-Link.com,2013-07-28 05:44:00,
2013-07-27 22:59:00,73.2,50.0,29.77,WNW,292,7.3,-999.0,44,-99.99,,,0.00,Acu-Link.com,2013-07-28 05:59:00,
2013-07-27 23:14:00,72.9,49.7,29.78,WSW,247,5.3,-999.0,44,-99.99,,,0.00,Acu-Link.com,2013-07-28 06:14:00,
2013-07-27 23:29:00,72.3,49.8,29.77,NW,315,2.2,-999.0,45,-99.99,,,0.00,Acu-Link.com,2013-07-28 06:29:00,
2013-07-27 23:44:00,71.6,49.1,29.77,NNW,337,2.7,-999.0,45,-99.99,,,0.00,Acu-Link.com,2013-07-28 06:44:00,
2013-07-27 23:59:00,71.1,49.8,29.76,West,270,1.7,-999.0,47,-99.99,,,0.00,Acu-Link.com,2013-07-28 06:59:00,